User: anonymous
Location: Muenchen
(48.1800°N, 11.5800°E)
Time: 21:47:32
(UTC+02:00)
Language:

Sich 1 Rocket - Orbit

View from above orbital plane
View from above orbital plane
View from above satellite
View from above satellite

Ground track
Ground track

The orbit data is extracted from the following two-line orbital elements,

1 23659U 95046C   14235.45862833  .00000286  00000-0  36441-4 0  9902
2 23659 082.5330 179.7669 0025483 001.8826 137.0044 14.77795099 22584
Epoch (UTC): 23 August 2014 11:00:25
Eccentricity: 0.0025483
inclination: 82.5330°
perigee height: 618 km
apogee height: 654 km
right ascension of ascending node: 179.7669°
argument of perigee: 1.8826°
revolutions per day: 14.77795099
mean anomaly at epoch: 137.0044°
orbit number at epoch: 2258

The dashed part of the orbit path shows where the satellite is in the earth's shadow,  

DLR